Terminal Aerodrome Forecast
Issued by NWS St Louis, MO

Home | Current Version | Previous Version | Graphics & Text | Print | Product List | Glossary On
Versions: 1 2 3 4 5 6 7 8 9 10 11 12 13 14 15 16 17 18 19 20 21 22 23 24 25 26 27
000
FTUS43 KLSX 222325
TAFSTL
TAF
KSTL 222325Z 2300/2406 16010KT P6SM OVC060
     FM230700 20007KT P6SM BKN090
     FM231000 21006KT P6SM VCTS BKN030CB
      TEMPO 2311/2314 5SM -TSRA BR OVC015CB
     FM231500 32010KT P6SM VCSH BKN025
     FM232000 35013G19KT P6SM BKN045=

USA.gov is the U.S. government's official web portal to all federal, state and local government web resources and services.